Oklahoma City / Page Muni, OK

1:52 PM CDT on July 27, 2017 (GMT -0500)
Oklahoma City / Page Muni

Weather History for KRCE - March, 2013

Change the Weather History Date:

Sunday, March 3, 2013

  Actual Average (KPWA) Record (KPWA)
Temperature  
Mean Temperature 50 °F -  
Max Temperature 68 °F 58 °F 84 °F (1955)
Min Temperature 33 °F 34 °F 3 °F (1960)
Degree Days  
Heating Degree Days 14    
Moisture  
Dew Point 31 °F    
Average Humidity 50    
Maximum Humidity 75    
Minimum Humidity 30    
Precipitation  
Precipitation 0.00 in - - ()
Sea Level Pressure  
Sea Level Pressure 29.88 in    
Wind  
Wind Speed 15 mph (South)    
Max Wind Speed 26 mph    
Max Gust Speed 34 mph    
Visibility 10 miles    
Events      
Averages and records for this station are not official NWS values.
T = Trace of Precipitation, MM = Missing Value Source: NWS Daily Summary

Daily Weather History Graph

Daily Weather History Graph

Search for Another Location

Airport or City:

Trip Planner

Search our weather history database for the weather conditions in past years. The results will help you decide how hot, cold, wet, or windy it might be!

Date:

Astronomy

Mar. 03, 2013 Rise Set
Actual Time 6:58 AM CST 6:28 PM CST
Civil Twilight 6:32 AM CST 6:54 PM CST
Nautical Twilight 6:03 AM CST 7:23 PM CST
Astronomical Twilight 5:33 AM CST 7:53 PM CST
Moon No Moon Rise 10:28 AM CST (3/3)
Length of Visible Light 12h 21m
Length of Day
11h 30m
Waning Gibbous, 63% of the Moon is Illuminated
Mar 3
Waning Gibbous
Mar 4
Last Quarter
Mar 11
New
Mar 19
First Quarter
Mar 27
Full

Hourly Weather History & Observations

Time (CST) Temp. Windchill Dew Point Humidity Pressure Visibility Wind Dir Wind Speed Gust Speed Precip Events Conditions
12:15 AM 37.4 °F 30.3 °F 26.6 °F 65% 30.16 in 10.0 mi South 10.4 mph - N/A   Clear
12:35 AM 35.6 °F 29.2 °F 26.6 °F 70% 30.15 in 10.0 mi South 8.1 mph - N/A   Clear
1:15 AM 35.6 °F 27.5 °F 28.4 °F 75% 30.15 in 10.0 mi South 11.5 mph - N/A   Clear
1:55 AM 37.4 °F 29.8 °F 28.4 °F 70% 30.14 in 10.0 mi SSW 11.5 mph 16.1 mph N/A   Clear
2:15 AM 35.6 °F 27.5 °F 26.6 °F 70% 30.13 in 10.0 mi SSW 11.5 mph - N/A   Clear
2:35 AM 35.6 °F 27.1 °F 26.6 °F 70% 30.13 in 10.0 mi South 12.7 mph - N/A   Clear
2:55 AM 35.6 °F 27.5 °F 26.6 °F 70% 30.12 in 10.0 mi South 11.5 mph - N/A   Clear
3:15 AM 35.6 °F 27.5 °F 26.6 °F 70% 30.11 in 10.0 mi South 11.5 mph - N/A   Clear
3:35 AM 35.6 °F 27.5 °F 26.6 °F 70% 30.11 in 10.0 mi South 11.5 mph - N/A   Clear
3:55 AM 35.6 °F 27.5 °F 26.6 °F 70% 30.10 in 10.0 mi South 11.5 mph - N/A   Clear
4:15 AM 33.8 °F 24.8 °F 26.6 °F 75% 30.08 in 10.0 mi South 12.7 mph - N/A   Clear
4:35 AM 33.8 °F 25.3 °F 26.6 °F 75% 30.08 in 10.0 mi South 11.5 mph - N/A   Clear
4:55 AM 35.6 °F 27.1 °F 26.6 °F 70% 30.07 in 10.0 mi South 12.7 mph - N/A   Clear
5:35 AM 33.8 °F 24.8 °F 26.6 °F 75% 30.07 in 10.0 mi South 12.7 mph - N/A   Clear
5:55 AM 33.8 °F 25.3 °F 26.6 °F 75% 30.07 in 10.0 mi South 11.5 mph - N/A   Clear
6:15 AM 33.8 °F 25.3 °F 26.6 °F 75% 30.06 in 10.0 mi South 11.5 mph - N/A   Clear
6:35 AM 35.6 °F 26.2 °F 26.6 °F 70% 30.05 in 10.0 mi South 15.0 mph - N/A   Clear
6:55 AM 35.6 °F 26.2 °F 26.6 °F 70% 30.04 in 10.0 mi South 15.0 mph - N/A   Clear
7:15 AM 35.6 °F 25.9 °F 26.6 °F 70% 30.04 in 10.0 mi South 16.1 mph - N/A   Clear
7:35 AM 37.4 °F 28.9 °F 26.6 °F 65% 30.03 in 10.0 mi South 13.8 mph - N/A   Clear
7:55 AM 37.4 °F 28.5 °F 26.6 °F 65% 30.03 in 10.0 mi South 15.0 mph - N/A   Clear
8:15 AM 39.2 °F 31.2 °F 28.4 °F 65% 30.03 in 10.0 mi South 13.8 mph 19.6 mph N/A   Clear
8:35 AM 41.0 °F 33.1 °F 28.4 °F 61% 30.02 in 10.0 mi South 15.0 mph 24.2 mph N/A   Clear
8:55 AM 42.8 °F 34.8 °F 28.4 °F 57% 30.02 in 10.0 mi South 17.3 mph 25.3 mph N/A   Clear
9:15 AM 44.6 °F 36.9 °F 28.4 °F 53% 30.02 in 10.0 mi SSW 18.4 mph 25.3 mph N/A   Clear
9:55 AM 48.2 °F - 32.0 °F 54% 29.99 in 10.0 mi South 19.6 mph - N/A   Clear
10:15 AM 48.2 °F - 32.0 °F 54% 29.99 in 10.0 mi South 17.3 mph 23.0 mph N/A   Clear
10:35 AM 51.8 °F - 32.0 °F 47% 29.98 in 10.0 mi South 17.3 mph - N/A   Clear
10:55 AM 53.6 °F - 33.8 °F 47% 29.97 in 10.0 mi South 15.0 mph - N/A   Clear
11:15 AM 55.4 °F - 33.8 °F 44% 29.96 in 10.0 mi South 17.3 mph 23.0 mph N/A   Clear
11:35 AM 57.2 °F - 33.8 °F 41% 29.95 in 10.0 mi South 16.1 mph 23.0 mph N/A   Clear
11:55 AM 59.0 °F - 35.6 °F 42% 29.93 in 10.0 mi SSW 17.3 mph 24.2 mph N/A   Clear
12:15 PM 59.0 °F - 35.6 °F 42% 29.92 in 9.0 mi SSW 17.3 mph 20.7 mph N/A   Clear
12:35 PM 59.0 °F - 33.8 °F 39% 29.89 in 8.0 mi SSW 16.1 mph 25.3 mph N/A   Clear
12:55 PM 60.8 °F - 33.8 °F 36% 29.87 in 8.0 mi SSW 19.6 mph 27.6 mph N/A   Clear
1:15 PM 64.4 °F - 33.8 °F 32% 29.85 in 9.0 mi South 19.6 mph 28.8 mph N/A   Clear
1:35 PM 64.4 °F - 35.6 °F 34% 29.83 in 9.0 mi SSW 21.9 mph 28.8 mph N/A   Clear
1:55 PM 64.4 °F - 35.6 °F 34% 29.82 in 10.0 mi SSW 20.7 mph 28.8 mph N/A   Clear
2:15 PM 66.2 °F - 35.6 °F 32% 29.81 in 10.0 mi South 18.4 mph 29.9 mph N/A   Clear
3:15 PM 68.0 °F - 35.6 °F 30% 29.76 in 10.0 mi South 26.5 mph 32.2 mph N/A   Clear
3:35 PM 68.0 °F - 35.6 °F 30% 29.76 in 10.0 mi South 20.7 mph 32.2 mph N/A   Clear
3:55 PM 64.4 °F - 35.6 °F 34% 29.74 in 10.0 mi South 21.9 mph 27.6 mph N/A   Clear
4:35 PM 66.2 °F - 35.6 °F 32% 29.72 in 10.0 mi South 23.0 mph 27.6 mph N/A   Clear
4:55 PM 66.2 °F - 35.6 °F 32% 29.72 in 10.0 mi South 17.3 mph 23.0 mph N/A   Clear
5:15 PM 66.2 °F - 35.6 °F 32% 29.72 in 10.0 mi SSE 18.4 mph 24.2 mph N/A   Clear
5:55 PM 64.4 °F - 33.8 °F 32% 29.71 in 10.0 mi SSE 18.4 mph 23.0 mph N/A   Clear
6:15 PM 62.6 °F - 33.8 °F 34% 29.70 in 10.0 mi SSE 17.3 mph 26.5 mph N/A   Clear
6:35 PM 60.8 °F - 33.8 °F 36% 29.69 in 10.0 mi SSE 18.4 mph 24.2 mph N/A   Clear
6:55 PM 59.0 °F - 35.6 °F 42% 29.69 in 10.0 mi SSE 19.6 mph 25.3 mph N/A   Clear
7:15 PM 59.0 °F - 35.6 °F 42% 29.68 in 10.0 mi SSE 20.7 mph 27.6 mph N/A   Clear
7:35 PM 59.0 °F - 33.8 °F 39% 29.67 in 10.0 mi SSE 20.7 mph 29.9 mph N/A   Clear
7:55 PM 59.0 °F - 33.8 °F 39% 29.67 in 10.0 mi SSE 21.9 mph 29.9 mph N/A   Clear
8:15 PM 59.0 °F - 32.0 °F 36% 29.66 in 10.0 mi SSE 25.3 mph 32.2 mph N/A   Clear
8:35 PM 59.0 °F - 32.0 °F 36% 29.65 in 10.0 mi SSE 25.3 mph 33.4 mph N/A   Clear
8:55 PM 57.2 °F - 32.0 °F 38% 29.65 in 10.0 mi SSE 25.3 mph 29.9 mph N/A   Clear
9:15 PM 57.2 °F - 32.0 °F 38% 29.64 in 10.0 mi SSE 25.3 mph 34.5 mph N/A   Clear
9:35 PM 57.2 °F - 32.0 °F 38% 29.64 in 10.0 mi SSE 21.9 mph 27.6 mph N/A   Clear
9:55 PM 57.2 °F - 33.8 °F 41% 29.64 in 10.0 mi SSE 21.9 mph 28.8 mph N/A   Clear
10:15 PM 57.2 °F - 33.8 °F 41% 29.62 in 10.0 mi South 23.0 mph 32.2 mph N/A   Clear
10:35 PM 57.2 °F - 33.8 °F 41% 29.62 in 10.0 mi South 21.9 mph 31.1 mph N/A   Clear
10:55 PM 57.2 °F - 33.8 °F 41% 29.61 in 10.0 mi South 20.7 mph 28.8 mph N/A   Clear
11:15 PM 57.2 °F - 32.0 °F 38% 29.60 in 10.0 mi South 24.2 mph 31.1 mph N/A   Clear
11:35 PM 57.2 °F - 32.0 °F 38% 29.59 in 10.0 mi South 20.7 mph 29.9 mph N/A   Clear
11:55 PM 57.2 °F - 32.0 °F 38% 29.58 in 10.0 mi South 21.9 mph 28.8 mph N/A   Partly Cloudy